Henderson, KY

3:59 PM CDT on September 16, 2019 (GMT -0500)
Henderson City-County

Weather History for KEHR - July, 2019

Change the Weather History Date:

Tuesday, July 23, 2019

  Actual Average Record
Temperature  
Mean Temperature 70 °F -  
Max Temperature 79 °F 87 °F 106 °F (1933)
Min Temperature 60 °F 67 °F 45 °F (1947)
Cooling Degree Days 4    
Growing Degree Days 20 (Base 50)    
Moisture  
Dew Point 59 °F    
Average Humidity 70    
Maximum Humidity 100    
Minimum Humidity 46    
Precipitation  
Precipitation 0.00 in - - ()
Sea Level Pressure  
Sea Level Pressure 30.08 in    
Wind  
Wind Speed 7 mph (North)    
Max Wind Speed 12 mph    
Max Gust Speed 17 mph    
Visibility 10 miles    
Events      
Averages and records for this station are not official NWS values.
T = Trace of Precipitation, MM = Missing Value Source: NWS Daily Summary

Daily Weather History Graph

Daily Weather History Graph

Search for Another Location

Airport or City:

Astronomy

Jul. 23, 2019 Rise Set
Actual Time 5:46 AM CDT 8:07 PM CDT
Civil Twilight 5:16 AM CDT 8:37 PM CDT
Nautical Twilight 4:39 AM CDT 9:13 PM CDT
Astronomical Twilight 3:59 AM CDT 9:54 PM CDT
Moon No Moon Rise 11:53 AM CDT (7/23)
Length of Visible Light 15h 20m
Length of Day
14h 20m
Waning Gibbous, 63% of the Moon is Illuminated
Jul 23
Waning Gibbous
Jul 24
Last Quarter
Jul 31
New
Aug 7
First Quarter
Aug 15
Full

Hourly Weather History & Observations

Time (CDT) Temp. Dew Point Humidity Pressure Visibility Wind Dir Wind Speed Gust Speed Precip Events Conditions
12:56 AM 66.9 °F 59.0 °F 76% 30.05 in 10.0 mi North 8.1 mph - N/A   Clear
1:56 AM 66.0 °F 57.0 °F 73% 30.05 in 10.0 mi North 8.1 mph - N/A   Clear
2:56 AM 64.0 °F 57.0 °F 78% 30.05 in 10.0 mi North 4.6 mph - N/A   Clear
3:56 AM 62.1 °F 55.0 °F 78% 30.05 in 10.0 mi Variable 5.8 mph - N/A   Clear
4:56 AM 61.0 °F 55.0 °F 81% 30.05 in 10.0 mi NNW 6.9 mph - N/A   Clear
5:56 AM 60.1 °F 54.0 °F 80% 30.06 in 10.0 mi NNW 5.8 mph - N/A   Clear
6:56 AM 62.1 °F 55.0 °F 78% 30.08 in 10.0 mi NNW 8.1 mph - N/A   Clear
7:56 AM 64.9 °F 57.0 °F 75% 30.09 in 10.0 mi North 8.1 mph - N/A   Clear
8:56 AM 66.9 °F 59.0 °F 76% 30.10 in 10.0 mi NNE 9.2 mph - N/A   Clear
9:56 AM 70.0 °F 60.1 °F 71% 30.11 in 10.0 mi NNE 8.1 mph - N/A   Clear
10:56 AM 73.0 °F 62.1 °F 68% 30.12 in 10.0 mi North 6.9 mph - N/A   Clear
11:56 AM 77.0 °F 60.1 °F 56% 30.11 in 10.0 mi North 11.5 mph - N/A   Clear
12:56 PM 77.0 °F 57.9 °F 52% 30.10 in 10.0 mi North 10.4 mph - N/A   Clear
1:56 PM 78.1 °F 55.9 °F 46% 30.09 in 10.0 mi North 11.5 mph 17.3 mph N/A   Clear
2:56 PM 79.0 °F 57.0 °F 47% 30.08 in 10.0 mi North 11.5 mph - N/A   Clear
3:56 PM 79.0 °F 57.0 °F 47% 30.07 in 10.0 mi North 11.5 mph - N/A   Clear
4:56 PM 79.0 °F 57.0 °F 47% 30.07 in 10.0 mi North 9.2 mph 16.1 mph N/A   Clear
5:56 PM 79.0 °F 59.0 °F 50% 30.06 in 9.0 mi North 4.6 mph - N/A   Clear
6:56 PM 77.0 °F 60.1 °F 56% 30.06 in 10.0 mi North 3.5 mph - N/A   Clear
7:56 PM 71.1 °F 64.9 °F 81% 30.06 in 10.0 mi Calm Calm - N/A   Clear
8:56 PM 66.9 °F 64.9 °F 93% 30.07 in 10.0 mi Calm Calm - N/A   Clear
9:56 PM 64.9 °F 64.0 °F 97% 30.08 in 10.0 mi Calm Calm - N/A   Clear
10:56 PM 63.0 °F 63.0 °F 100% 30.08 in 10.0 mi SW 3.5 mph - N/A   Clear